Hourly Data Report for September 24, 2017

All times are specified in Local Standard Time (LST). Add 1 hour to adjust for Daylight Saving Time where and when it is observed.

CAPE DORSET A
NUNAVUT

64°13'49.000" N
76°31'30.000" W
48.20 m
2400637
71366
YTE

Download Data

Hourly Data (September 2017)
Hourly Data Report for September 24, 2017
Temp Definition
°C
Dew Point Temp Definition
°C
Rel Hum Definition
%
Wind Dir Definition
10's deg

Wind Spd Definition
km/h
Visibility Definition
km
Stn Press Definition
kPa
Hmdx Definition


Wind Chill Definition


Weather Definition


TIME
00:00 Legend Double Dagger -1.7 -3.9 85 28 18 16.1 101.07   -7 LegendNANA
01:00 Legend Double Dagger -1.3 -3.7 84 30 26 16.1 101.03   -8 LegendNANA
02:00 Legend Double Dagger -1.1 -3.1 86 28 24 16.1 100.98   -7 LegendNANA
03:00 Legend Double Dagger -0.7 -3.1 84 27 17 16.1 100.96   -6 LegendNANA
04:00 Legend Double Dagger -0.2 -1.8 89 28 21 16.1 100.93   -6 LegendNANA
05:00 Legend Double Dagger -0.5 -2.6 86 29 32 9.7 100.92   -7 Snow
06:00 Legend Double Dagger -0.4 -3.4 80 29 34 16.1 100.86   -7 LegendNANA
07:00 Legend Double Dagger -0.7 -4.2 78 29 34 16.1 100.88   -8 LegendNANA
08:00 Legend Double Dagger -0.7 -2.5 88 30 37 4.8 100.87   -8 Fog
09:00 Legend Double Dagger -0.6 -4.9 73 31 34 16.1 100.87   -8 LegendNANA
10:00 Legend Double Dagger 0.0 -4.5 72 30 34 16.1 100.86   -7 LegendNANA
11:00 Legend Double Dagger 0.2 -4.3 72 30 34 16.1 100.85     LegendNANA
12:00 Legend Double Dagger 0.5 -4.2 71 30 35 16.1 100.86     LegendNANA
13:00 Legend Double Dagger 0.3 -4.4 71 30 34 16.1 100.90     LegendNANA
14:00 Legend Double Dagger 0.4 -4.1 72 30 32 16.1 100.90     LegendNANA
15:00 Legend Double Dagger 0.2 -4.3 72 30 37 16.1 100.89     LegendNANA
16:00 Legend Double Dagger -0.1 -4.0 75 31 34 16.1 100.94   -7 LegendNANA
17:00 Legend Double Dagger -0.7 -2.8 86 29 24 16.1 100.94   -7 LegendNANA
18:00 Legend Double Dagger -0.9 -3.4 83 29 22 16.1 100.93   -7 LegendNANA
19:00 Legend Double Dagger -1.0 -3.4 84 30 22 16.1 100.93   -7 LegendNANA
20:00 Legend Double Dagger -1.1 -3.3 85 29 24 16.1 100.93   -7 LegendNANA
21:00 Legend Double Dagger -1.1 -4.6 77 29 24 16.1 100.92   -7 LegendNANA
22:00 Legend Double Dagger -0.8 -4.2 78 30 26 16.1 100.92   -7 LegendNANA
23:00 Legend Double Dagger -1.1 -4.3 79 29 26 16.1 100.90   -7 LegendNANA

Notes on Data Quality.

Legend

  • E = Estimated
  • M = Missing
  • NA = Not Available
  • ‡ = Partner data that is not subject to review by the National Climate Archives
Date modified: